Date,TemperatureHighF,TemperatureAvgF,TemperatureLowF,DewpointHighF,DewpointAvgF,DewpointLowF,HumidityHigh,HumidityAvg,HumidityLow,PressureMaxIn,PressureMinIn,WindSpeedMaxMPH,WindSpeedAvgMPH,GustSpeedMaxMPH,PrecipitationSumIn
2012-2-22,62,62,62,54,54,54,75,75,75,29.67,29.67,0,0,0,0.80
2012-2-23,69,64,62,60,55,54,76,72,58,29.67,29.62,14,2,14,0.00
2012-2-24,77,65,47,68,53,27,96,68,33,30.02,29.60,21,7,21,0.00
2012-2-25,64,47,36,33,27,19,73,47,25,30.33,30.01,21,4,21,0.00
2012-2-26,62,44,30,37,28,24,99,59,29,30.51,30.32,9,1,9,0.00
2012-2-27,66,52,36,54,44,29,96,76,56,30.46,30.37,6,1,6,0.00
2012-2-28,73,56,40,51,45,40,100,70,35,30.45,30.30,8,1,8,0.00
2012-2-29,65,61,56,65,60,50,100,97,71,30.31,29.88,16,3,16,0.00
2012-3-1,85,70,58,65,51,30,100,61,16,29.93,29.83,16,5,16,0.00
2012-3-2,65,57,52,58,49,42,100,78,56,29.99,29.71,8,0,8,0.00
2012-3-3,66,58,52,60,48,30,100,74,41,29.82,29.65,14,2,14,0.00
2012-3-4,64,50,36,40,30,22,69,47,29,30.06,29.74,19,5,19,0.00
2012-3-5,64,47,35,35,27,20,82,49,25,30.50,29.95,18,4,18,0.00
2012-3-6,62,44,30,34,27,23,92,53,27,30.66,30.49,8,1,8,0.00
2012-3-7,68,53,39,52,43,28,88,69,48,30.64,30.45,7,1,7,0.00
2012-3-8,77,65,55,59,53,49,100,68,42,30.45,30.12,13,2,13,0.00
2012-3-9,66,58,47,61,44,29,100,64,30,30.35,30.11,14,3,14,0.00
2012-3-10,64,50,38,37,28,19,91,49,18,30.54,30.35,8,2,8,0.00
2012-3-11,69,52,35,47,37,30,99,60,29,30.58,30.43,7,1,7,0.00
2012-3-12,70,61,54,60,52,44,99,73,54,30.46,30.30,12,1,12,0.00
2012-3-13,82,66,59,64,60,56,100,82,44,30.30,30.17,9,2,9,0.00
2012-3-14,88,72,54,63,51,39,100,58,20,30.30,30.20,8,1,8,0.00
2012-3-15,90,69,51,58,51,44,100,59,20,30.31,30.21,12,1,12,0.00
2012-3-16,88,70,57,64,57,50,100,69,28,30.29,30.14,14,2,14,0.00
2012-3-17,85,69,59,64,58,50,100,74,30,30.29,30.19,8,1,8,0.00
2012-3-18,82,68,59,65,59,55,100,78,40,30.37,30.22,7,1,7,0.00
2012-3-19,88,71,57,64,57,50,100,69,29,30.26,30.13,7,0,7,0.00
2012-3-20,88,73,59,64,58,52,100,65,30,30.25,30.14,10,1,10,0.00
2012-3-21,86,70,60,65,59,52,100,70,35,30.33,30.21,8,1,8,0.00
2012-3-22,80,68,60,70,64,59,100,87,50,30.30,30.19,8,0,8,0.00
2012-3-23,82,68,60,74,66,60,100,92,53,30.21,30.00,14,1,14,0.00
2012-3-24,83,69,60,68,56,35,100,69,28,30.00,26.83,17,4,17,0.00
2012-3-25,72,62,55,52,48,42,69,59,46,29.92,29.78,16,4,16,0.00
2012-3-26,86,70,59,52,46,30,75,48,15,30.11,29.89,14,3,14,0.00
2012-3-27,74,62,52,50,41,33,70,48,28,30.36,30.11,8,1,8,0.00
2012-3-28,82,65,49,60,52,43,100,65,38,30.28,29.98,16,3,16,0.00
2012-3-29,87,72,59,68,56,48,93,62,28,30.01,29.92,10,1,10,0.00
2012-3-30,83,68,57,65,55,44,100,70,32,30.05,29.88,9,1,9,0.00
2012-3-31,82,68,58,67,62,56,100,85,43,29.95,29.80,12,1,12,0.00
2012-4-1,86,66,53,67,57,50,100,79,30,29.92,29.80,10,1,10,0.00
2012-4-2,92,71,56,68,60,55,100,76,31,29.95,29.76,9,0,9,0.00
2012-4-3,77,68,62,68,64,62,100,90,66,30.06,29.94,5,0,5,0.00
2012-4-4,90,70,58,66,62,57,100,79,35,29.99,29.73,13,1,13,0.00
2012-4-5,87,68,56,67,61,55,100,82,41,29.84,29.66,12,2,12,0.00
2012-4-6,67,56,49,55,48,40,100,78,42,30.16,29.82,9,2,9,0.00
2012-4-7,75,59,44,49,44,37,100,66,29,30.32,30.16,8,1,8,0.00
2012-4-8,82,64,48,53,47,40,100,60,24,30.25,30.01,10,1,10,0.00
2012-4-9,82,67,53,47,36,21,66,35,13,30.18,29.93,16,3,16,0.00
2012-4-10,79,63,46,48,42,32,97,50,28,30.08,29.88,17,4,17,0.00
2012-4-11,70,58,46,34,30,23,60,35,18,30.19,29.94,17,2,17,0.00
2012-4-12,70,53,36,38,32,26,98,49,22,30.34,30.16,9,1,9,0.00
2012-4-13,76,56,40,47,38,29,100,57,20,30.30,30.21,7,1,7,0.00
2012-4-14,80,61,44,51,44,40,98,60,28,30.37,30.21,10,2,10,0.00
2012-4-15,85,67,50,62,56,47,100,71,41,30.27,30.19,13,2,13,0.00
2012-4-16,88,73,63,64,60,57,94,67,36,30.26,30.17,16,3,16,0.00
2012-4-17,88,73,60,67,61,57,100,71,36,30.23,30.08,10,1,10,0.00
2012-4-18,97,64,53,95,63,52,100,97,82,31.54,29.93,12,2,12,0.00
2012-4-19,74,61,52,62,57,52,100,86,54,30.96,30.96,8,1,8,0.00
2012-4-20,76,64,55,62,58,55,100,83,52,30.96,30.96,7,0,7,0.00
2012-4-21,79,68,59,68,62,58,100,82,50,30.96,30.95,8,1,8,0.00
2012-4-22,72,62,49,62,54,39,96,76,50,30.95,30.95,12,3,12,0.00
2012-4-23,64,53,46,47,36,29,95,56,34,30.95,30.95,13,3,13,0.00
2012-4-24,70,54,38,43,38,31,96,57,27,30.95,30.95,16,2,16,0.00
2012-4-25,81,64,50,65,52,42,100,68,38,30.95,30.95,11,1,11,0.00
2012-4-26,80,69,63,69,62,55,100,79,56,30.95,30.95,14,3,14,0.00
2012-4-27,84,69,62,77,66,62,100,91,53,30.95,30.95,13,0,13,0.00
2012-4-28,74,66,60,66,59,51,100,80,54,30.95,30.95,7,0,7,0.00
2012-4-29,87,70,55,68,61,55,100,77,41,30.95,24.19,6,0,6,0.00
2012-4-30,92,75,60,70,64,60,100,75,36,24.19,24.19,8,1,8,0.00
2012-5-1,91,78,66,72,66,62,98,71,42,24.19,24.19,10,2,10,0.00
2012-5-2,94,79,66,71,65,57,100,67,32,24.19,24.19,9,1,9,0.00
2012-5-3,93,77,63,70,64,58,100,71,32,24.19,24.19,8,1,8,0.00
2012-5-4,91,76,67,72,66,61,100,75,38,24.19,24.19,12,2,12,0.00
2012-5-5,88,76,64,73,65,59,100,74,43,24.19,24.19,9,1,9,0.00
2012-5-6,86,75,63,67,64,59,100,71,41,24.19,24.19,9,1,9,0.00
2012-5-7,84,74,66,70,64,58,100,75,44,24.19,24.19,9,1,9,0.00
2012-5-8,85,74,68,76,68,60,100,85,49,24.19,24.19,9,1,9,0.00
2012-5-9,68,68,65,68,68,65,100,100,100,30.95,24.19,1,0,1,0.00
2012-5-10,68,68,68,68,68,68,100,100,100,30.95,30.95,0,0,0,0.00
2012-5-11,68,68,68,68,68,68,100,100,100,30.95,30.95,0,0,0,0.00
2012-5-12,68,68,68,68,68,68,100,100,100,30.95,30.95,0,0,0,0.00
2012-5-13,68,68,68,68,68,68,100,100,100,30.95,30.95,0,0,0,0.00
2012-5-14,68,68,68,68,68,68,100,100,100,30.95,30.95,0,0,0,0.00
2012-5-15,68,68,68,68,68,68,100,100,100,30.95,30.95,0,0,0,0.00
2012-5-16,68,68,68,68,68,68,100,100,100,30.95,30.95,0,0,0,0.00
2012-5-17,68,68,68,68,68,68,100,100,100,30.95,30.95,0,0,0,0.00
2012-5-18,68,68,68,68,68,68,100,100,100,30.95,30.95,0,0,0,0.00
2012-5-19,68,68,68,68,68,68,100,100,100,30.95,30.95,0,0,0,0.00
2012-5-20,68,68,68,68,68,68,100,100,100,30.95,30.95,0,0,0,0.00
2012-6-8,88,79,62,68,61,55,100,57,35,30.11,30.01,6,0,6,0.00
2012-6-9,90,76,64,69,63,58,100,70,36,30.13,30.04,6,0,6,0.00
2012-6-10,74,69,66,71,68,65,100,96,82,30.17,30.08,5,0,5,0.00
2012-6-12,91,81,74,75,72,68,97,76,52,29.98,29.90,8,1,8,0.00
2012-6-13,91,80,68,76,71,65,100,76,44,30.03,29.96,6,1,6,0.00
2012-6-14,85,77,70,74,64,55,99,67,41,30.18,30.03,7,1,7,0.00
2012-6-15,85,76,68,69,63,57,95,67,43,30.26,30.15,8,1,8,0.00
2012-6-16,86,73,61,67,60,55,100,67,39,30.32,30.17,7,1,7,0.00
2012-6-17,88,76,64,68,62,56,97,66,38,30.21,30.03,5,0,5,0.01
2012-6-18,92,78,66,70,65,59,100,68,36,30.14,30.05,8,1,8,0.00
2012-6-19,94,79,65,71,65,59,100,68,33,30.22,30.14,7,0,7,0.00
2012-6-20,93,80,67,75,68,63,100,72,39,30.22,30.11,8,0,8,0.00
2012-6-21,95,81,69,75,69,64,100,72,38,30.14,29.97,10,1,10,0.00
2012-6-22,98,82,72,75,70,62,100,72,34,30.02,29.91,9,1,9,0.00
2012-6-23,96,80,68,75,70,65,100,75,38,30.03,29.94,7,0,7,0.00
2012-6-24,96,82,72,75,70,64,100,72,38,30.05,29.92,8,0,8,0.00
2012-6-25,97,83,72,78,71,66,100,72,37,29.98,29.75,7,0,7,0.00
2012-6-26,90,79,68,74,58,45,94,54,22,29.93,29.79,12,2,12,0.00
2012-6-27,91,75,59,62,55,48,97,57,24,30.05,29.93,9,1,9,0.00
2012-6-28,101,81,62,70,60,47,100,58,17,30.07,29.97,8,1,8,0.00
2012-6-29,107,87,68,76,64,51,99,57,17,29.98,29.85,9,1,9,0.00
2012-6-30,109,90,75,74,67,54,92,55,18,29.97,29.87,6,0,6,0.00
2012-7-1,110,89,71,79,67,44,98,59,12,30.16,29.91,14,1,14,0.41
2012-7-2,94,82,71,80,71,64,100,74,41,30.22,29.99,17,2,17,0.02
2012-7-3,98,84,72,78,71,64,100,69,36,30.08,29.98,8,1,8,0.00
2012-7-4,99,84,72,77,71,64,99,69,34,30.06,29.99,7,1,7,0.00
2012-7-5,104,84,72,79,72,59,100,74,25,30.06,29.93,13,1,13,0.34
2012-7-6,98,83,70,79,71,61,100,73,31,30.03,29.96,7,0,7,0.00
2012-7-7,100,85,74,80,74,66,100,74,35,30.08,29.99,7,1,7,0.00
2012-7-8,101,87,77,79,74,68,99,70,38,30.05,29.91,10,1,10,0.01
2012-7-9,101,86,75,80,73,64,100,70,32,29.99,29.91,12,1,12,0.00
2012-7-10,94,80,74,79,75,64,100,86,45,30.08,29.97,20,1,20,0.13
2012-7-11,78,75,72,78,74,71,100,98,84,30.17,30.04,8,0,8,0.20
2012-7-12,79,73,68,75,72,68,100,96,80,30.19,30.11,7,1,7,0.52
2012-7-13,87,77,71,81,76,71,100,96,69,30.22,30.13,5,0,5,0.00
2012-7-14,94,82,75,79,74,67,100,81,44,30.25,30.14,8,0,8,0.00
2012-7-15,96,81,72,82,75,68,100,87,43,30.25,30.11,8,1,8,0.42
2012-7-16,96,80,71,81,74,66,100,85,39,30.16,30.00,13,1,13,0.61
2012-7-17,96,82,70,81,73,67,100,77,42,30.05,29.96,9,1,9,0.00
2012-7-18,97,82,72,78,73,68,100,79,41,30.07,29.98,10,1,10,0.01
2012-7-19,97,83,72,79,73,68,100,77,41,30.09,29.99,9,1,9,0.03
2012-7-20,95,80,74,80,76,68,100,89,45,30.03,29.95,12,1,12,0.51
2012-7-21,92,82,73,80,74,68,100,80,48,30.13,29.99,10,2,10,0.00
2012-7-22,98,85,74,80,72,65,100,71,35,30.23,30.12,12,2,12,0.00
2012-7-23,98,84,74,82,76,67,100,80,39,30.24,30.10,9,1,9,0.00
2012-7-24,100,86,74,82,74,67,100,72,36,30.12,29.97,8,1,8,0.00
2012-7-25,99,85,74,78,73,68,100,73,38,30.05,29.95,8,1,8,0.00
2012-7-26,100,88,74,80,73,67,100,67,36,29.99,29.87,9,2,9,0.00
2012-7-27,101,86,76,80,74,63,100,71,34,30.01,29.92,17,1,17,0.00
2012-7-28,101,85,74,78,72,60,100,71,27,30.06,29.95,10,1,10,0.00
2012-7-29,96,83,72,77,69,59,100,69,31,30.07,29.96,5,0,5,0.00
2012-7-30,96,83,74,74,69,61,98,67,34,30.03,29.95,9,1,9,0.00
2012-7-31,79,74,71,77,73,69,100,97,73,30.04,29.95,7,0,7,1.56
2012-8-1,95,80,69,81,72,64,100,82,37,29.98,29.90,5,0,5,0.12
2012-8-2,97,82,71,82,74,65,100,80,37,30.02,29.89,9,0,9,0.84
2012-8-3,94,81,73,82,76,70,100,86,47,30.09,29.94,7,1,7,0.45
2012-8-4,86,79,74,80,76,66,100,91,54,30.23,30.08,8,0,8,0.01
2012-8-5,93,81,72,83,75,68,100,86,46,30.27,30.14,7,0,7,0.04
2012-8-6,94,81,74,79,74,68,100,84,45,30.18,30.05,7,0,7,0.16
2012-8-7,88,79,73,80,76,72,100,93,62,30.11,30.00,6,0,6,0.35
2012-8-8,93,80,72,81,76,70,100,88,52,30.08,29.99,7,1,7,0.00
2012-8-9,90,78,70,80,74,70,100,90,58,30.06,29.89,17,0,17,0.93
2012-8-15,78,75,73,75,74,72,96,95,88,30.03,29.99,0,0,0,2.98
2012-8-16,90,77,65,75,67,61,100,77,40,30.08,29.99,5,0,5,0.00
2012-8-17,90,78,67,77,71,67,100,83,50,30.06,29.89,8,0,8,0.00
2012-8-18,89,76,68,76,72,66,100,88,51,29.98,29.88,6,0,6,0.01
2012-8-19,84,76,71,79,74,70,100,93,64,29.93,29.86,6,0,6,0.08
2012-8-20,86,76,67,74,68,59,100,82,40,30.02,29.89,6,0,6,0.00
2012-8-21,88,74,64,73,67,61,100,82,43,30.11,30.00,9,0,9,0.08
2012-8-22,87,75,67,72,68,63,100,84,47,30.16,30.08,10,0,10,0.00
2012-8-23,88,77,68,76,70,64,100,80,48,30.19,30.11,7,0,7,0.00
2012-8-24,88,76,66,72,67,59,100,78,43,30.18,30.11,7,0,7,0.00
2012-8-25,90,75,65,73,67,62,100,80,43,30.20,30.11,5,0,5,0.00
2012-8-26,92,77,65,73,68,61,100,77,38,30.22,30.11,6,0,6,0.00
2012-8-27,92,78,67,74,69,62,100,77,41,30.19,30.06,7,1,7,0.00
2012-8-28,88,77,71,80,75,71,100,93,62,30.09,29.99,5,0,5,0.05
2012-8-29,84,78,74,81,77,74,100,98,80,30.07,29.98,4,0,4,0.00
2012-8-30,87,79,72,80,76,72,100,91,65,30.22,30.02,6,0,6,0.00
2012-8-31,96,82,74,78,74,69,100,81,42,30.27,30.16,8,1,8,0.00
2012-9-1,98,83,73,79,74,65,100,80,36,30.20,30.08,6,0,6,0.00
2012-9-2,95,80,72,80,75,69,100,86,46,30.12,29.98,13,1,13,0.01
2012-9-3,90,78,73,81,76,72,100,95,58,30.04,29.96,10,0,10,0.21
2012-9-4,86,78,76,80,77,74,100,97,70,30.03,29.94,6,0,6,0.04
2012-9-5,90,80,74,79,75,70,100,88,54,30.00,29.91,9,1,9,0.00
2012-9-6,93,80,73,80,76,70,100,87,49,30.00,29.92,7,1,7,0.00
2012-9-7,92,79,70,79,73,68,100,85,48,30.02,29.91,6,0,6,0.00
2012-9-8,95,77,69,79,72,66,100,88,42,29.92,29.74,13,1,13,0.54
2012-9-9,84,71,61,70,61,53,100,75,38,30.06,29.88,8,1,8,0.00
2012-9-10,86,69,58,69,62,55,100,81,38,30.18,30.04,5,0,5,0.00
2012-9-11,84,71,65,70,63,57,100,79,44,30.32,30.18,5,0,5,0.00
2012-9-12,83,72,64,69,63,58,100,78,44,30.38,30.27,9,0,9,0.00
2012-9-13,80,69,60,67,62,56,100,80,45,30.38,30.27,6,0,6,0.00
2012-9-14,85,72,63,72,64,58,100,82,42,30.31,30.19,5,0,5,0.00
2012-9-15,89,73,63,74,65,59,100,81,36,30.23,30.13,6,0,6,0.00
2012-9-16,84,73,68,77,71,68,100,94,59,30.17,30.06,4,0,4,0.02
2012-9-17,78,72,69,77,72,69,100,100,95,30.13,29.88,5,0,5,0.05
2012-9-18,79,74,70,76,73,65,100,97,79,29.90,29.74,10,2,10,0.09
2012-9-19,79,68,58,70,61,56,100,80,48,30.15,29.90,13,1,13,0.00
2012-9-20,82,68,59,68,63,59,100,85,48,30.19,30.08,4,0,4,0.00
2012-9-21,87,70,59,72,64,59,100,83,42,30.13,30.01,9,1,9,0.00
2012-9-22,90,74,64,71,65,61,100,80,39,30.04,29.95,10,2,10,0.00
2012-9-23,83,69,59,61,55,45,83,64,27,30.16,30.07,6,0,6,0.00
2012-9-24,78,61,49,58,49,44,100,68,32,30.26,30.16,9,1,9,0.00
2012-9-25,82,64,51,67,57,50,100,82,42,30.26,30.19,8,1,8,0.00
2012-9-26,87,69,57,67,61,56,100,81,39,30.26,30.17,9,1,9,0.00
2012-9-27,89,70,57,71,62,56,100,80,34,30.24,30.13,7,0,7,0.00
2012-9-28,90,74,62,71,65,61,100,78,40,30.17,30.00,8,1,8,0.00
2012-9-29,83,71,66,74,68,65,100,92,59,30.06,29.88,8,1,8,0.00
2012-9-30,76,68,62,69,63,54,100,86,48,29.95,29.86,6,0,6,0.01
2012-10-1,67,63,61,67,63,61,100,100,99,29.89,29.78,9,1,9,0.41
2012-10-2,84,71,62,73,66,62,100,88,51,30.01,29.75,10,1,10,0.07
2012-10-3,80,70,64,71,66,60,100,89,50,30.23,30.01,7,0,7,0.00
2012-10-4,85,71,63,69,64,57,100,83,39,30.28,30.19,6,0,6,0.00
2012-10-5,86,68,57,67,61,56,100,81,38,30.25,30.05,7,0,7,0.00
2012-10-6,87,70,57,73,63,57,100,84,41,30.07,29.91,7,1,7,0.00
2012-10-7,68,63,57,67,61,52,100,94,78,30.14,29.97,7,1,7,0.29
2012-10-8,58,54,52,57,50,45,98,87,74,30.23,30.13,9,2,9,0.00
2012-10-9,59,54,51,58,53,51,100,95,79,30.24,30.13,5,0,5,0.00
2012-10-10,76,61,49,60,54,49,100,79,44,30.19,30.05,14,2,14,0.00
2012-10-11,72,58,46,58,50,46,100,80,43,30.33,30.19,7,0,7,0.00
2012-10-12,80,62,51,69,58,51,100,87,46,30.32,30.20,4,0,4,0.00
2012-10-13,70,60,54,61,52,45,100,76,49,30.48,30.31,10,2,10,0.00
2012-10-14,73,62,53,68,60,53,100,94,70,30.35,30.06,7,0,7,0.00
2012-10-15,84,68,57,71,59,43,100,78,29,30.06,29.79,14,2,14,0.05
2012-10-16,75,60,48,56,50,44,100,75,36,30.01,29.89,5,0,5,0.00
2012-10-17,76,59,49,56,52,47,100,80,37,30.04,29.89,9,0,9,0.00
2012-10-18,72,60,51,66,59,51,100,95,73,29.94,29.80,7,0,7,0.01
2012-10-19,75,60,50,60,49,38,100,73,29,29.87,29.74,16,2,16,0.00
2012-10-20,74,57,45,56,48,44,100,76,39,29.98,29.82,8,0,8,0.00
2012-10-21,74,58,46,58,50,45,100,79,42,30.19,29.98,7,0,7,0.00
2012-10-22,80,61,47,63,53,47,100,80,35,30.29,30.15,4,0,4,0.00
2012-10-23,84,63,50,63,54,50,100,79,34,30.22,30.11,7,0,7,0.00
2012-10-24,84,64,49,61,53,47,100,76,28,30.22,30.10,6,0,6,0.00
2012-10-25,80,63,51,64,58,51,100,84,47,30.18,30.10,7,0,7,0.00
2012-10-26,82,68,58,66,59,56,100,77,43,30.11,29.96,9,1,9,0.00
2012-10-27,80,67,60,62,58,51,100,74,47,29.99,29.73,10,2,10,0.00
2012-10-28,76,59,50,55,48,37,96,67,43,29.78,29.68,21,5,21,0.00
2012-10-29,61,51,47,39,35,32,65,54,43,29.74,29.59,24,8,24,0.00
2012-10-30,59,50,46,38,34,31,69,55,43,29.70,29.50,14,4,14,0.00
2012-10-31,68,53,44,46,36,26,96,57,24,29.81,29.69,16,3,16,0.00
2012-11-1,68,50,36,38,31,22,98,53,18,29.93,29.80,9,1,9,0.00
2012-11-2,78,54,39,47,39,31,96,61,24,30.02,29.81,14,2,14,0.00
2012-11-3,76,55,40,52,42,38,99,67,27,30.11,29.99,8,0,8,0.00
2012-11-4,73,58,49,53,46,40,99,66,40,30.05,29.93,7,0,7,0.00
2012-11-5,67,54,44,46,40,35,98,60,32,30.09,29.98,8,0,8,0.00
2012-11-6,53,48,45,45,38,35,94,70,56,30.09,29.94,12,2,12,0.01
2012-11-7,52,46,43,49,44,38,100,93,75,29.98,29.86,5,0,5,0.00
2012-11-8,69,52,42,43,37,31,97,60,27,30.16,29.98,13,2,13,0.00
2012-11-9,71,50,35,43,37,33,100,66,26,30.27,30.15,7,0,7,0.00
2012-11-10,76,53,37,46,39,34,100,67,24,30.38,30.26,8,0,8,0.00
2012-11-11,73,56,39,56,46,38,100,75,45,30.47,30.37,12,1,12,0.00
2012-11-12,72,63,55,67,61,55,100,94,70,30.39,30.19,10,0,10,0.05
2012-11-13,65,54,43,63,45,34,100,75,35,30.38,30.19,10,1,10,0.03
2012-11-14,54,47,38,38,34,32,87,62,45,30.47,30.32,10,2,10,0.00
2012-11-15,53,45,37,42,38,32,100,81,57,30.34,30.22,8,1,8,0.03
2012-11-16,62,45,33,43,37,33,100,78,38,30.38,30.25,7,0,7,0.00
2012-11-17,60,48,38,40,33,28,98,62,32,30.47,30.37,12,2,12,0.00
2012-11-18,48,47,47,29,28,28,49,48,47,30.44,30.42,9,4,9,0.00
2012-11-19,63,56,48,56,49,47,99,78,61,30.33,30.20,10,2,10,0.00
2012-11-20,66,52,43,51,46,42,100,82,46,30.21,30.06,5,0,5,0.00
2012-11-21,68,51,40,48,41,38,100,74,35,30.18,30.09,7,0,7,0.00
2012-11-22,69,50,37,44,37,32,100,68,28,30.28,30.17,7,0,7,0.00
2012-11-23,72,53,35,49,41,33,100,68,38,30.26,29.94,13,2,13,0.00
2012-11-24,59,48,36,34,28,21,65,47,28,30.10,29.99,13,3,13,0.00
2012-11-25,59,42,29,33,27,21,99,59,32,30.17,30.04,12,1,12,0.00
2012-11-26,70,48,33,37,31,25,98,57,24,30.19,30.09,7,0,7,0.00
2012-11-27,60,55,48,51,40,32,88,59,44,30.22,30.07,7,0,7,0.00
2012-11-28,64,50,37,48,38,28,100,66,29,30.38,30.21,9,0,9,0.00
2012-11-29,64,45,32,45,35,27,100,71,44,30.46,30.33,9,1,9,0.00
2012-11-30,68,47,32,48,40,32,100,78,48,30.40,30.26,13,2,13,0.00
2012-12-1,70,52,38,54,45,38,100,81,47,30.40,30.31,9,0,9,0.00
2012-12-2,71,57,45,58,51,44,100,84,53,30.39,30.26,12,2,12,0.00
2012-12-3,77,57,44,55,49,44,100,79,43,30.32,30.24,10,1,10,0.00
2012-12-4,77,60,49,59,52,49,100,78,43,30.36,30.21,12,2,12,0.00
2012-12-5,68,61,55,66,57,47,100,88,63,30.22,30.13,8,1,8,0.00
2012-12-6,58,53,50,49,38,32,72,58,46,30.32,30.20,8,1,8,0.00
2012-12-7,61,52,45,53,44,38,98,75,62,30.23,30.01,5,0,5,0.00
2012-12-8,69,55,44,62,52,44,100,92,63,30.10,29.99,13,2,13,0.06
2012-12-9,72,61,54,64,59,54,100,94,71,30.13,30.00,9,1,9,0.29
2012-12-10,64,61,59,64,61,59,100,100,98,30.00,29.72,14,3,14,0.16
2012-12-11,62,52,46,62,45,36,100,76,54,30.15,29.75,12,1,12,0.00
2012-12-12,50,46,44,46,37,34,96,70,63,30.31,30.14,13,2,13,0.00
2012-12-13,46,45,44,34,33,32,65,64,61,30.31,30.26,10,4,10,0.00
2012-12-17,58,56,53,58,56,53,100,100,100,29.87,29.69,12,2,12,0.03
2012-12-18,64,54,39,56,45,33,100,74,36,29.97,29.69,12,2,12,0.00
2012-12-19,70,52,36,49,40,32,100,68,40,30.10,29.96,8,1,8,0.00
2012-12-20,51,46,41,51,45,36,100,97,75,30.10,29.62,19,2,19,1.18
2012-12-21,52,44,35,36,29,22,76,57,44,29.95,29.71,23,8,23,0.00
2012-12-22,60,41,30,35,25,17,84,55,26,30.14,29.95,10,1,10,0.00
2012-12-23,60,43,29,39,31,24,100,67,40,30.16,30.02,8,1,8,0.00
2012-12-24,52,48,45,52,44,35,100,89,60,30.05,29.88,7,0,7,0.35
2012-12-25,50,47,44,50,47,44,100,100,100,30.09,29.92,7,0,7,0.12
2012-12-26,52,46,38,52,44,33,100,92,76,29.92,29.49,20,4,20,0.70
2012-12-27,55,41,31,40,35,31,100,82,49,30.07,29.77,8,0,8,0.00
2012-12-28,48,39,32,42,35,31,100,85,61,30.16,29.95,5,0,5,0.01
2012-12-29,58,44,38,48,38,27,100,82,56,30.08,29.74,12,2,12,0.19
2012-12-30,54,39,29,34,28,25,100,68,37,30.40,30.08,17,2,17,0.00
2012-12-31,57,44,31,39,32,27,100,66,40,30.38,30.11,13,3,13,0.00
2013-1-1,53,50,47,53,45,31,100,84,50,30.12,29.94,14,1,14,0.58